Location: Moena
(46.3667°N, 11.6500°E)
Time: 20:53:24
(UTC+00:00)

SeaSat 1 - Pass Details

Date: 03 March 2021
Orbit: 744 x 747 km, 108.0° (Epoch: 20 April)

Event Time Altitude Azimuth Distance (km) Brightness Sun altitude
Rises 17:55:33 0° 33° (NNE) 3,200 5.4 -9.9°
Reaches altitude 10° 17:57:55 10° 39° (NE) 2,272 4.6 -10.4°
Maximum altitude 18:02:40 47° 113° (ESE) 991 2.7 -11.2°
Drops below altitude 10° 18:07:24 10° 187° (S) 2,258 5.0 -12.0°
Sets 18:09:44 0° 193° (SSW) 3,178 5.8 -12.4°
